This demonstration page uses our WeatherBlox Daily Observations layout. Learn more.

39.92423, -83.80882

Hourly Observations for August 10, 2018

Temp ( °F °C ) Dew Point ( °F °C ) Humidity (%) Winds ( mph kmh ) Pressure ( in mb ) Visibility ( mi km ) Precip ( " mm )
12:56 am 00:56 Clear 69 20.6 68 20 96 96 Calm 29.97 1015 10 16.0934 0 0
1:56 am 01:56 Clear 68 20 67 19.4 96 96 SW 5 7 29.96 1015 10 16.0934 0 0
2:56 am 02:56 Clear 67 19.4 67 19.4 100 100 WSW 5 7 29.96 1015 10 16.0934 0 0
3:56 am 03:56 Clear 66 18.9 66 18.9 100 100 SSW 5 7 29.96 1015 10 16.0934 0 0
4:56 am 04:56 Clear 66 18.9 66 18.9 100 100 SW 5 7 29.97 1015 8 12.87472 0 0
5:56 am 05:56 Clear 67 19.4 67 19.4 100 100 W 7 11 29.96 1015 9 14.48406 0 0
6:56 am 06:56 Partly Cloudy with Mist and Fog 67 19.4 67 19.4 100 100 Calm 29.96 1015 5 8.0467 0 0
7:56 am 07:56 Sunny with Mist and Fog 69 20.6 69 20.6 100 100 SW 5 7 29.96 1015 5 8.0467 0 0
8:56 am 08:56 Sunny 72 22.2 72 22.2 100 100 WSW 6 9 29.97 1015 9 14.48406 0 0
10:56 am 10:56 Mostly Sunny 79 26.1 73 22.8 82 82 SW 7 11 29.98 1015 10 16.0934 0 0
11:56 am 11:56 Mostly Sunny 80 26.7 71 21.7 74 74 WNW 6 9 29.98 1015 10 16.0934 0 0
12:56 pm 12:56 Mostly Sunny 81 27.2 73 22.8 77 77 WSW 10 17 29.97 1015 10 16.0934 0 0
1:56 pm 13:56 Mostly Cloudy 80 26.7 72 22.2 76 76 WSW 7 11 29.95 1014 10 16.0934 0 0
2:56 pm 14:56 Mostly Cloudy 82 27.8 73 22.8 74 74 WSW 9 15 29.93 1014 10 16.0934 0 0
3:56 pm 15:56 Mostly Cloudy 83 28.3 73 22.8 72 72 W 9 15 29.92 1013 10 16.0934 0 0
4:56 pm 16:56 Partly Cloudy 80 26.7 71 21.7 74 74 WSW 7 11 29.9 1012 10 16.0934 0 0
5:56 pm 17:56 Sunny 83 28.3 72 22.2 70 70 WSW 7 11 29.88 1012 10 16.0934 0 0
6:56 pm 18:56 Partly Cloudy 82 27.8 72 22.2 72 72 W 7 11 29.88 1012 10 16.0934 0 0
7:37 pm 19:37 Cloudy with Nearby Thunderstorms 79 26 73 23 84 84 SSW 3 6 29.85 1011 10 16.0934 0 0
7:56 pm 19:56 Cloudy with Nearby Thunderstorms 77 25 72 22.2 85 85 SSW 8 13 29.9 1013 10 16.0934 0 0
8:33 pm 20:33 Cloudy with Nearby Thunderstorms 73 23 68 20 83 83 E 15 24 29.91 1013 10 16.0934 0 0.0254
8:42 pm 20:42 Cloudy with Nearby Thunderstorms 73 23 70 21 89 89 ENE 10 17 29.91 1013 10 16.0934 0 0.0254
8:54 pm 20:54 Cloudy with Nearby Thunderstorms 73 23 70 21 89 89 ESE 14 22 29.91 1013 10 16.0934 0 0.0254
8:56 pm 20:56 Cloudy with Nearby Thunderstorms 73 22.8 70 21.1 90 90 E 16 26 29.94 1014 10 16.0934 0 0.0254
9:28 pm 21:28 Cloudy with Heavy Thunderstorms 70 21 70 21 100 100 SSE 17 28 29.94 1014 7 11.26538 0.03 0.762
9:40 pm 21:40 Cloudy with Heavy Thunderstorms 70 21 70 21 100 100 SE 15 24 29.94 1014 1.75 2.816345 0.47 11.938
9:51 pm 21:51 Cloudy with Thunderstorms 70 21 70 21 100 100 SE 13 20 29.94 1014 3 4.82802 0.7 17.78
9:56 pm 21:56 Cloudy with Nearby Thunderstorms 69 20.6 69 20.6 100 100 SSE 5 7 29.96 1015 8 12.87472 0.7 17.78
10:02 pm 22:02 Mostly Cloudy with Light Rain 70 21 70 21 100 100 SSE 9 15 29.94 1014 10 16.0934 0.01 0.254
10:09 pm 22:09 Partly Cloudy with Nearby Thunderstorms 70 21 70 21 100 100 ESE 10 17 29.91 1013 10 16.0934 0.01 0.254
10:24 pm 22:24 Mostly Clear 70 21 70 21 100 100 SSE 9 15 29.94 1014 10 16.0934 0.01 0.254
10:33 pm 22:33 Partly Cloudy with Nearby Thunderstorms 70 21 68 20 94 94 VRB 3 6 29.94 1014 10 16.0934 0.01 0.254
10:56 pm 22:56 Cloudy with Nearby Thunderstorms 69 20.6 69 20.6 100 100 Calm 29.97 1015 10 16.0934 0.01 0.254
11:10 pm 23:10 Cloudy with Light Thunderstorms 70 21 68 20 94 94 NNW 6 9 29.97 1015 10 16.0934 0 0.0254
11:54 pm 23:54 Partly Cloudy with Light Rain 68 20 68 20 100 100 SSE 7 11 29.97 1015 10 16.0934 0.04 1.016
11:56 pm 23:56 Partly Cloudy with Light Rain 68 20 68 20 100 100 SSE 8 13 29.96 1015 10 16.0934 0.04 1.016

Powered by AerisWeather